Location: ?
(35.6144°N, 139.6873°E)
Time: 01:37:53
(UTC+00:00)

Tiangong - Visible Passes

Search period start: 14 July 2024 00:00
Search period end: 24 July 2024 00:00
Orbit: 373 x 378 km, 41.5° (Epoch: 13 July)

Date Brightness Start Highest point End Pass type
(mag) Time Alt. Az. Time Alt. Az. Time Alt. Az.
14 Jul -0.3 17:10:50 30° ENE 17:10:50 30° ENE 17:12:34 10° ENE visible
14 Jul -0.4 18:43:37 10° WNW 18:46:21 28° N 18:49:06 10° NE visible
15 Jul -0.9 17:43:02 32° NW 17:43:38 35° NNW 17:46:33 10° NE visible
16 Jul 0.8 16:43:12 16° NE 16:43:12 16° NE 16:43:57 10° ENE visible
16 Jul -0.2 18:15:14 10° WNW 18:17:54 26° N 18:20:35 10° ENE visible
17 Jul -0.3 17:15:21 28° N 17:15:21 28° N 17:17:48 10° NE visible
17 Jul -0.3 18:49:21 10° NW 18:52:08 29° N 18:54:54 10° ENE visible
18 Jul -0.1 17:47:30 17° NW 17:49:10 26° N 17:51:52 10° ENE visible
19 Jul 0.8 16:47:42 18° NE 16:47:42 18° NE 16:48:50 10° ENE visible
19 Jul -0.6 18:20:19 10° NW 18:23:13 36° NNE 18:26:07 10° E visible
20 Jul -0.3 17:20:02 28° N 17:20:09 28° N 17:22:54 10° ENE visible
20 Jul -2.2 18:53:55 10° WNW 18:57:00 83° NNE 19:00:06 10° ESE visible
21 Jul -1.3 17:52:36 26° NW 17:53:59 48° NNE 17:56:59 10° E visible
22 Jul 1.0 16:53:27 11° ENE 16:53:27 11° ENE 16:53:40 10° E visible
22 Jul -2.2 18:25:32 19° WNW 18:27:32 59° SSW 18:30:35 10° SE visible
23 Jul 0.4 17:26:51 15° ESE 17:26:51 15° ESE 17:27:30 10° ESE visible
23 Jul -0.6 18:58:58 12° WSW 19:00:46 17° SW 19:02:54 10° S visible
